[[{"header":{"parameterUnit":"m.s-1","parameterCategory":1,"la1":30.2991,"la2":30.254,"lo1":-89.0895,"lo2":-89.0444,"dy":0.0017,"dx":0.0017,"nx":28,"ny":28,"refTime":"2024-08-28T09:00:00:Z","depth":0,"parameterNumber":2,"parameterNumberName":"U-component_of_WINDS"},"data":[0,0,0,0,0,0,0,0,0,0,0,0,0,0,0,0,0,0,0,0,0,0,0,0,0,0,0,0,0,0,0,0,0,0,0,0,0,0,0,0,0,0,0,0,0,0,0,0,0,0,0,0,0,0,0,0,0,0,-3.291,-3.2911,0,-3.3043,-3.3045,-3.3046,-3.304,-3.3038,-3.3037,-3.3035,-3.317,-3.3175,-3.3181,0,0,0,0,0,0,0,0,0,0,0,0,0,-3.2649,-3.2654,-3.291,-3.2911,-3.2913,-3.3043,-3.3045,-3.3047,-3.3041,-3.3038,-3.3036,-3.3034,-3.3168,-3.3175,-3.3181,0,0,0,0,0,0,0,0,0,0,0,0,0,-3.277,-3.2655,-3.291,-3.2926,-3.2929,-3.3043,-3.3045,-3.3047,-3.3041,-3.3038,-3.3035,-3.3033,-3.3166,-3.3174,-3.3182,-3.3288,0,0,-3.3207,-3.321,0,0,0,0,0,0,0,0,-3.2763,-3.278,-3.2922,-3.2925,-3.2928,-3.3022,-3.3003,-3.3128,-3.3042,-3.2998,-3.3035,-3.3031,-3.3123,-3.3135,-3.3166,-3.3295,-3.33,-3.3207,-3.3212,-3.3216,-3.3218,0,0,0,0,0,0,0,-3.2755,-3.2774,-3.2963,-3.2924,-3.2928,-3.2926,-3.294,-3.3026,-3.3075,-3.3002,-3.3002,-3.3018,-3.3124,-3.3158,-3.3169,-3.3302,-3.3207,-3.3214,-3.3219,-3.3222,-3.3524,-3.3527,0,0,0,0,0,0,-3.2743,-3.2767,-3.2958,-3.2967,-3.2837,-3.2933,-3.2949,-3.2995,-3.3074,-3.3083,-3.302,-3.3017,-3.3146,-3.316,-3.3174,-3.3302,-3.3216,-3.3223,-3.3228,-3.3521,-3.3525,-3.3528,0,0,0,0,0,0,-3.2738,-3.276,-3.2953,-3.2867,-3.2891,-3.2941,-3.2992,-3.2999,-3.3033,-3.3088,-3.3096,-3.3045,-3.3144,-3.3162,-3.326,-3.3307,-3.3227,-3.3234,-3.3517,-3.3522,-3.3527,-3.3561,0,0,0,0,0,0,-3.273,-3.2758,-3.2799,-3.2868,-3.2896,-3.3037,-3.2995,-3.3004,-3.3047,-3.3044,-3.3114,-3.3123,-3.3143,-3.3248,-3.3268,-3.3316,-3.324,-3.3513,-3.352,-3.3525,-3.3555,-3.3566,-3.3575,0,0,0,0,0,-3.2721,-3.2804,-3.2801,-3.2825,-3.2948,-3.304,-3.3056,-3.3078,-3.3051,-3.3092,-3.3127,-3.312,-3.3299,-3.3258,-3.328,-3.3332,-3.351,-3.3518,-3.3525,-3.3551,-3.3564,-3.3575,0,0,0,0,0,0,-3.2739,-3.2813,-3.2811,-3.2919,-3.2973,-3.3039,-3.3091,-3.3091,-3.3154,-3.3149,-3.3173,-3.3189,-3.3287,-3.3319,-3.3272,-3.3439,-3.3401,-3.3413,-3.3413,-3.3426,-3.3436,-3.3425,-3.3247,0,0,0,0,0,-3.2755,-3.2824,-3.2885,-3.2974,-3.3001,-3.3042,-3.3082,-3.3095,-3.3152,-3.3175,-3.3217,-3.3273,-3.3341,-3.3386,-3.3452,-3.3561,-3.3575,-3.3608,-3.3617,-3.3625,-3.3634,-3.3694,-3.3708,-3.3552,-3.3552,-3.3552,0,0,-3.279,-3.2839,-3.2881,-3.2979,-3.3022,-3.3092,-3.3061,-3.3136,-3.3188,-3.3186,-3.328,-3.3314,-3.3377,-3.3481,-3.3528,-3.3511,-3.3681,-3.3634,-3.364,-3.3645,-3.3702,-3.3717,-3.373,-3.3557,-3.3556,-3.3555,0,0,-3.2888,-3.2933,-3.3011,-3.3056,-3.3122,-3.3149,-3.3168,-3.3234,-3.3256,-3.3351,-3.3351,-3.3413,-3.3531,-3.3576,-3.3614,-3.373,-3.3726,-3.3751,-3.3801,-3.3858,-3.3871,-3.3882,-3.3922,-3.3936,-3.3761,-3.3761,-3.3761,0,-3.2923,-3.3028,-3.3052,-3.3127,-3.317,-3.3172,-3.3251,-3.3293,-3.3378,-3.3407,-3.3387,-3.3534,-3.3577,-3.3691,-3.3719,-3.3751,-3.3772,-3.3742,-3.3867,-3.3878,-3.3889,-3.3927,-3.3942,-3.3763,-3.3763,-3.3763,-3.3763,0,-3.3067,-3.314,-3.3195,-3.3277,-3.3326,-3.3403,-3.3438,-3.3485,-3.3493,-3.3522,-3.3618,-3.367,-3.3747,-3.3775,-3.3784,-3.389,-3.3877,-3.3862,-3.3824,-3.3906,-3.3942,-3.3957,-3.3767,-3.3766,-3.3765,-3.3765,0,0,-3.3179,-3.3273,-3.3292,-3.3329,-3.3403,-3.346,-3.3537,-3.3612,-3.3651,-3.371,-3.3774,-3.3874,-3.3861,-3.3904,-3.3919,-3.3969,-3.4056,-3.3948,-3.395,-3.3965,-3.4175,-3.4184,-3.4201,-3.4055,-3.4058,-3.406,-3.4169,0,-3.3283,-3.342,-3.3444,-3.3563,-3.363,-3.3634,-3.3701,-3.3753,-3.3782,-3.3843,-3.3876,-3.3945,-3.3923,-3.3949,-3.4,-3.4035,-3.4098,-3.4028,-3.4114,-3.4117,-3.4096,-3.422,-3.423,-3.433,-3.4183,-3.4186,-3.4187,0,-3.3424,-3.3486,-3.3612,-3.3676,-3.3705,-3.3765,-3.3835,-3.3894,-3.3954,-3.3971,-3.402,-3.4029,-3.4108,-3.4069,-3.4178,-3.413,-3.4167,-3.419,-3.4194,-3.4201,-3.4155,-3.4229,-3.4363,-3.4377,-3.421,-3.4209,-3.4207,0,-3.3491,-3.3606,-3.3696,-3.3728,-3.3806,-3.3847,-3.3882,-3.3938,-3.3982,-3.4043,-3.4072,-3.4142,-3.418,-3.4234,-3.4261,-3.423,-3.4369,-3.4331,-3.4384,-3.4384,-3.4412,-3.4409,-3.4551,-3.4439,-3.4439,-3.4438,-3.4438,0,-3.3604,-3.3681,-3.3727,-3.3782,-3.3868,-3.3895,-3.3979,-3.4012,-3.4063,-3.4124,-3.4132,-3.419,-3.4223,-3.4285,-3.4307,-3.4394,-3.4412,-3.4427,-3.4432,-3.4426,-3.4423,-3.4449,-3.4442,-3.4442,-3.4441,-3.4441,-3.444,0,-3.3693,-3.3727,-3.3825,-3.3891,-3.3909,-3.3969,-3.4025,-3.4079,-3.4108,-3.4186,-3.4206,-3.4252,-3.4325,-3.4358,-3.445,-3.4464,-3.4563,-3.4563,-3.4542,-3.4544,-3.4594,-3.4588,-3.4756,-3.4779,-3.4653,-3.4654,-3.4655,0,-3.3762,-3.3821,-3.3893,-3.3934,-3.397,-3.4037,-3.4082,-3.411,-3.4156,-3.4228,-3.4273,-3.4347,-3.4407,-3.4525,-3.4566,-3.4636,-3.4637,-3.4691,-3.4648,-3.4639,-3.4636,-3.4631,-3.4637,-3.4698,-3.47,-3.4701,-3.4702,0,-3.388,-3.3895,-3.3958,-3.4028,-3.4081,-3.4137,-3.4192,-3.4226,-3.4263,-3.4314,-3.4389,-3.4437,-3.453,-3.4603,-3.4675,-3.471,-3.4712,-3.4715,-3.4731,-3.4724,-3.4709,-3.4716,-3.4562,-3.4711,-3.471,-3.4709,-3.4709,-3.4708,-3.3961,-3.4013,-3.4071,-3.4142,-3.4186,-3.4237,-3.4291,-3.4327,-3.439,-3.4468,-3.4481,-3.4561,-3.4619,-3.4717,-3.4755,-3.4817,-3.4804,-3.4827,-3.4833,-3.4838,-3.484,-3.47,-3.4831,-3.4831,-3.4831,-3.483,-3.483,0,-3.4078,-3.4116,-3.4181,-3.4257,-3.4313,-3.431,-3.4371,-3.4417,-3.4488,-3.4542,-3.4601,-3.4688,-3.4759,-3.4806,-3.4878,-3.4919,-3.4922,-3.4937,-3.4933,-3.4941,-3.4848,-3.4827,-3.4933,-3.4933,-3.4933,-3.4933,-3.4933,-3.4933,-3.4145,-3.4233,-3.4254,-3.4364,-3.4402,-3.448,-3.4515,-3.4562,-3.4605,-3.4701,-3.476,-3.4791,-3.4842,-3.4917,-3.4982,-3.4994,-3.502,-3.5035,-3.5046,-3.4958,-3.4948,-3.4937,-3.4917,-3.5041,-3.5041,-3.5134,-3.5134,-3.5135]},{"header":{"parameterUnit":"m.s-1","parameterCategory":1,"la1":30.2991,"la2":30.254,"lo1":-89.0895,"lo2":-89.0444,"dy":0.0017,"dx":0.0017,"nx":28,"ny":28,"refTime":"2024-08-28T09:00:00:Z","depth":0,"parameterNumber":3,"parameterNumberName":"V-component_of_WINDS"},"data":[0,0,0,0,0,0,0,0,0,0,0,0,0,0,0,0,0,0,0,0,0,0,0,0,0,0,0,0,0,0,0,0,0,0,0,0,0,0,0,0,0,0,0,0,0,0,0,0,0,0,0,0,0,0,0,0,0,0,1.403,1.403,0,1.4075,1.4076,1.4076,1.4035,1.4033,1.4031,1.403,1.4074,1.4077,1.408,0,0,0,0,0,0,0,0,0,0,0,0,0,1.3905,1.3908,1.403,1.403,1.4031,1.4075,1.4076,1.4077,1.4035,1.4033,1.4031,1.4029,1.4073,1.4077,1.408,0,0,0,0,0,0,0,0,0,0,0,0,0,1.3956,1.3909,1.403,1.4015,1.4015,1.4075,1.4076,1.4077,1.4035,1.4033,1.403,1.4028,1.4072,1.4076,1.408,1.4157,0,0,1.4093,1.4095,0,0,0,0,0,0,0,0,1.3953,1.3961,1.4017,1.4017,1.4016,1.4047,1.4048,1.4103,1.4036,1.4027,1.403,1.4027,1.4067,1.4072,1.4086,1.4159,1.4161,1.4094,1.4096,1.4098,1.4099,0,0,0,0,0,0,0,1.395,1.3958,1.4048,1.4018,1.4017,1.4007,1.4011,1.4059,1.4061,1.4028,1.4025,1.4031,1.4066,1.4082,1.4086,1.4161,1.4093,1.4097,1.41,1.4101,1.4301,1.4303,0,0,0,0,0,0,1.3948,1.3956,1.4046,1.4049,1.3978,1.4011,1.4016,1.4039,1.406,1.4061,1.4033,1.4029,1.4076,1.4081,1.4088,1.4179,1.4098,1.4102,1.4104,1.4298,1.4301,1.4304,0,0,0,0,0,0,1.3946,1.3956,1.4044,1.4002,1.4012,1.4016,1.4042,1.4042,1.4057,1.4064,1.4064,1.4049,1.4074,1.4082,1.414,1.418,1.4104,1.4107,1.4294,1.4299,1.4303,1.4362,0,0,0,0,0,0,1.3942,1.3956,1.3985,1.4003,1.4015,1.4097,1.4045,1.4044,1.4064,1.4059,1.4079,1.4079,1.4073,1.4134,1.4144,1.4184,1.4111,1.4291,1.4296,1.4301,1.4356,1.4367,1.4377,0,0,0,0,0,1.3938,1.3999,1.3987,1.3998,1.4051,1.4099,1.4106,1.4097,1.4068,1.4097,1.4102,1.4079,1.4174,1.4141,1.4152,1.4193,1.4288,1.4295,1.4301,1.4352,1.4365,1.4377,0,0,0,0,0,0,1.3985,1.4001,1.3987,1.4056,1.4077,1.4092,1.4128,1.4112,1.414,1.4134,1.4122,1.4127,1.4189,1.4197,1.4159,1.4269,1.4226,1.4235,1.4261,1.4274,1.4284,1.4281,1.4114,0,0,0,0,0,1.4003,1.4041,1.4053,1.4113,1.4124,1.4125,1.4145,1.4137,1.4157,1.4165,1.4174,1.4195,1.4229,1.4252,1.4284,1.4357,1.4361,1.4392,1.4402,1.441,1.4418,1.4458,1.4472,1.4325,1.4325,1.4325,0,0,1.4041,1.4055,1.4079,1.4123,1.4137,1.4177,1.4132,1.4175,1.4204,1.4172,1.4228,1.4235,1.4257,1.4324,1.4353,1.4332,1.446,1.4419,1.4425,1.4428,1.4466,1.448,1.4493,1.4329,1.4328,1.4328,0,0,1.4131,1.4145,1.4197,1.4213,1.4237,1.4237,1.425,1.4268,1.4272,1.4328,1.4305,1.4339,1.4399,1.4416,1.4432,1.4531,1.4511,1.4541,1.4595,1.4635,1.4646,1.4657,1.4692,1.4705,1.4549,1.4549,1.4549,0,1.4175,1.4234,1.4225,1.4271,1.4291,1.4265,1.4317,1.4333,1.4366,1.438,1.4356,1.4431,1.4444,1.4514,1.4539,1.4553,1.4567,1.4539,1.4646,1.4656,1.4665,1.4699,1.4712,1.4553,1.4552,1.4552,1.4552,0,1.4288,1.4329,1.4368,1.4402,1.4426,1.4475,1.4473,1.4499,1.4489,1.4492,1.455,1.4565,1.46,1.4616,1.4606,1.4686,1.4672,1.4647,1.4604,1.4683,1.4714,1.4727,1.4558,1.4557,1.4556,1.4555,0,0,1.4407,1.4437,1.4451,1.4467,1.4491,1.4523,1.4571,1.4606,1.4629,1.4652,1.4692,1.4744,1.4722,1.4741,1.4733,1.4768,1.4845,1.4738,1.4739,1.4758,1.4935,1.4953,1.4968,1.4833,1.4835,1.4837,1.4933,0,1.4498,1.4582,1.4576,1.4655,1.4694,1.467,1.4712,1.4732,1.4736,1.4769,1.4774,1.4811,1.4778,1.479,1.4823,1.4829,1.4881,1.4822,1.487,1.4871,1.4865,1.4985,1.5004,1.5094,1.4945,1.4947,1.4949,0,1.4616,1.4645,1.4728,1.4749,1.4764,1.4802,1.4835,1.4867,1.4889,1.489,1.4912,1.4899,1.4947,1.4904,1.497,1.4931,1.495,1.4956,1.4959,1.4963,1.4915,1.4992,1.5122,1.5136,1.4968,1.4966,1.4965,0,1.4695,1.4755,1.4813,1.4827,1.4852,1.4879,1.4891,1.491,1.4933,1.4961,1.4975,1.5009,1.5027,1.5053,1.505,1.5019,1.5118,1.5074,1.512,1.5121,1.5142,1.5141,1.5277,1.5154,1.5154,1.5154,1.5154,0,1.4797,1.4849,1.4849,1.4885,1.4942,1.4935,1.4992,1.5001,1.5019,1.5056,1.5037,1.5072,1.5065,1.51,1.5098,1.5154,1.5162,1.5164,1.5163,1.5166,1.5166,1.5178,1.5172,1.5158,1.5157,1.5156,1.5155,0,1.4895,1.4897,1.4959,1.4978,1.4984,1.5026,1.5043,1.5076,1.508,1.5127,1.5137,1.5143,1.5183,1.5182,1.5227,1.5226,1.5295,1.5286,1.5288,1.5286,1.5332,1.5328,1.5482,1.5502,1.5366,1.5367,1.5368,0,1.496,1.5,1.5024,1.5048,1.5062,1.51,1.5123,1.5118,1.5142,1.5172,1.5202,1.5241,1.5272,1.5337,1.5345,1.538,1.5372,1.5424,1.5377,1.5379,1.5373,1.5371,1.5375,1.5432,1.5434,1.5435,1.5436,0,1.5076,1.5076,1.511,1.5145,1.5173,1.52,1.5225,1.5245,1.5243,1.5272,1.5313,1.5337,1.5385,1.5424,1.5458,1.5469,1.5453,1.5451,1.5464,1.5467,1.5466,1.5468,1.5313,1.5447,1.5446,1.5445,1.5445,1.5444,1.516,1.5194,1.5217,1.5256,1.5275,1.5299,1.5332,1.534,1.5375,1.5414,1.5409,1.5455,1.5477,1.5522,1.5537,1.5573,1.5555,1.5573,1.5577,1.5582,1.5588,1.5461,1.5579,1.5579,1.5578,1.5578,1.5578,0,1.5275,1.5289,1.5325,1.5361,1.5392,1.5375,1.5402,1.5429,1.547,1.5493,1.5524,1.5572,1.561,1.5622,1.5659,1.5686,1.5679,1.5696,1.5693,1.5697,1.5601,1.5587,1.57,1.57,1.57,1.57,1.57,1.57,1.5338,1.5396,1.5399,1.5466,1.5479,1.5525,1.5543,1.5565,1.5583,1.5638,1.567,1.5678,1.5696,1.5734,1.5769,1.5771,1.5786,1.5805,1.5805,1.5715,1.5703,1.5691,1.5678,1.5809,1.5809,1.5897,1.5898,1.5899]}]]